Location: Lourdes
(43.1000°N, 0.0500°W)
Time: 04:16:57
(UTC+00:00)

Cosmos 2297 - Pass Details

Date: 30 November 2020
Orbit: 834 x 860 km, 71.0° (Epoch: 24 January)

Event Time Altitude Azimuth Distance (km) Brightness Sun altitude
Rises 17:00:23 0° 337° (NNW) 3,412 6.9 -6.3°
Reaches altitude 10° 17:02:51 10° 340° (NNW) 2,477 6.1 -6.8°
Maximum altitude 17:08:31 68° 63° (ENE) 915 3.7 -7.7°
Drops below altitude 10° 17:14:12 10° 147° (SSE) 2,478 6.0 -8.7°
Sets 17:16:40 0° 150° (SSE) 3,414 6.8 -9.1°
